[[{"header":{"parameterUnit":"m.s-1","parameterCategory":1,"la1":30.2991,"la2":30.254,"lo1":-89.0895,"lo2":-89.0444,"dy":0.0017,"dx":0.0017,"nx":28,"ny":28,"refTime":"2025-11-17T03:00:00:Z","depth":0,"parameterNumber":2,"parameterNumberName":"U-component_of_WINDS"},"data":[0,0,0,0,0,0,0,0,0,0,0,0,0,0,0,0,0,0,0,0,0,0,0,0,0,0,0,0,0,0,0,0,0,0,0,0,0,0,0,0,0,0,0,0,0,0,0,0,0,0,0,0,0,0,0,0,0,0,0.3924,0.3925,0,0.402,0.4021,0.4022,0.4034,0.4033,0.4032,0.4031,0.413,0.4133,0.4137,0,0,0,0,0,0,0,0,0,0,0,0,0,0.3752,0.3755,0.3924,0.3925,0.3927,0.402,0.4021,0.4023,0.4034,0.4033,0.4032,0.403,0.4128,0.4133,0.4137,0,0,0,0,0,0,0,0,0,0,0,0,0,0.3835,0.3756,0.3924,0.3943,0.3946,0.402,0.4021,0.4023,0.4034,0.4033,0.4031,0.403,0.4127,0.4132,0.4137,0.4198,0,0,0.4153,0.4156,0,0,0,0,0,0,0,0,0.383,0.3841,0.3939,0.3942,0.3945,0.4014,0.3997,0.4082,0.4034,0.4001,0.4031,0.4029,0.4092,0.41,0.4121,0.4203,0.4207,0.4154,0.4157,0.4159,0.4161,0,0,0,0,0,0,0,0.3825,0.3837,0.3962,0.3941,0.3945,0.3948,0.3958,0.4013,0.4053,0.4004,0.4005,0.4016,0.4094,0.4116,0.4124,0.4209,0.4154,0.4158,0.4162,0.4164,0.4346,0.4348,0,0,0,0,0,0,0.3815,0.3832,0.3959,0.3965,0.3883,0.3952,0.3963,0.3993,0.4053,0.406,0.4017,0.4016,0.4108,0.4118,0.4127,0.4203,0.4159,0.4164,0.4167,0.4344,0.4346,0.4348,0,0,0,0,0,0,0.3811,0.3826,0.3955,0.3899,0.3916,0.3956,0.399,0.3996,0.4018,0.4063,0.407,0.4033,0.4107,0.412,0.4181,0.4207,0.4167,0.4171,0.4342,0.4345,0.4347,0.4355,0,0,0,0,0,0,0.3806,0.3825,0.3848,0.39,0.3919,0.4007,0.3991,0.3999,0.4027,0.4027,0.4079,0.4087,0.4107,0.4173,0.4186,0.4213,0.4176,0.434,0.4344,0.4347,0.4352,0.4357,0.4361,0,0,0,0,0,0.38,0.3846,0.3849,0.3864,0.3949,0.4008,0.4019,0.4042,0.4029,0.4053,0.4082,0.4085,0.4202,0.4179,0.4194,0.4223,0.4339,0.4343,0.4346,0.435,0.4356,0.4361,0,0,0,0,0,0,0.3797,0.3853,0.3857,0.3921,0.396,0.401,0.4041,0.4047,0.409,0.4088,0.4114,0.4126,0.4186,0.421,0.4184,0.4286,0.4269,0.4276,0.4267,0.4273,0.4278,0.427,0.418,0,0,0,0,0,0.3803,0.3847,0.3894,0.3946,0.3965,0.4,0.4027,0.404,0.4082,0.4098,0.4131,0.4171,0.4217,0.4246,0.4291,0.4356,0.4368,0.4384,0.4388,0.4392,0.4397,0.4435,0.4442,0.4361,0.4361,0.4361,0,0,0.3818,0.3854,0.388,0.3946,0.3978,0.4023,0.4013,0.4061,0.4095,0.4105,0.4165,0.4191,0.4237,0.4301,0.433,0.4323,0.4423,0.4396,0.4399,0.4403,0.4439,0.4447,0.4454,0.4363,0.4363,0.4362,0,0,0.3867,0.3898,0.3945,0.3977,0.4025,0.4048,0.4059,0.4109,0.4127,0.4187,0.4196,0.4237,0.4315,0.4348,0.4375,0.4437,0.4442,0.4451,0.4474,0.451,0.4517,0.4523,0.4546,0.4553,0.4456,0.4456,0.4456,0,0.3878,0.3946,0.3969,0.4017,0.4046,0.4058,0.4106,0.4136,0.4196,0.4216,0.4207,0.4306,0.4338,0.441,0.4425,0.4447,0.4461,0.4445,0.4514,0.452,0.4526,0.4548,0.4557,0.4457,0.4457,0.4457,0.4457,0,0.3958,0.4005,0.4038,0.4096,0.4129,0.4176,0.4207,0.4238,0.4249,0.4273,0.4334,0.4373,0.4426,0.4444,0.4456,0.4518,0.4513,0.4509,0.4493,0.4534,0.4555,0.4564,0.4458,0.4458,0.4458,0.4458,0,0,0.4007,0.4078,0.4089,0.4116,0.417,0.4207,0.4256,0.4308,0.4334,0.4375,0.4417,0.4483,0.448,0.4511,0.4526,0.4558,0.4606,0.455,0.4552,0.4559,0.4678,0.468,0.469,0.4609,0.4611,0.4612,0.4674,0,0.4063,0.4149,0.4172,0.4246,0.429,0.4302,0.4345,0.4383,0.4407,0.4448,0.4474,0.4521,0.4513,0.4532,0.4564,0.4593,0.463,0.4589,0.4649,0.4651,0.4637,0.4701,0.4704,0.476,0.4682,0.4684,0.4685,0,0.4139,0.4182,0.426,0.431,0.4329,0.4367,0.4416,0.4456,0.4499,0.4515,0.4549,0.4562,0.4614,0.4595,0.4667,0.4639,0.4665,0.4683,0.4686,0.4692,0.467,0.4709,0.4779,0.4787,0.4698,0.4697,0.4696,0,0.4167,0.4245,0.4302,0.4324,0.4383,0.441,0.4435,0.4478,0.4508,0.4552,0.4572,0.4621,0.4648,0.4686,0.4711,0.4695,0.4782,0.4765,0.4796,0.4796,0.4814,0.4812,0.4888,0.483,0.483,0.483,0.483,0,0.4227,0.4274,0.4316,0.4351,0.4405,0.443,0.4483,0.4509,0.4547,0.4588,0.4602,0.464,0.4672,0.4714,0.4735,0.4792,0.4804,0.4818,0.4823,0.4817,0.4815,0.4834,0.4831,0.4832,0.4832,0.4831,0.4831,0,0.4267,0.4297,0.436,0.4411,0.4425,0.4462,0.4506,0.4541,0.4566,0.4617,0.4631,0.4669,0.472,0.475,0.4814,0.4828,0.4892,0.4894,0.4877,0.4879,0.4909,0.4906,0.5,0.5014,0.4946,0.4946,0.4947,0,0.4304,0.4341,0.4395,0.4424,0.445,0.4496,0.4526,0.4553,0.4585,0.4638,0.4667,0.4719,0.4762,0.4843,0.4877,0.4926,0.4931,0.4961,0.4938,0.4932,0.4932,0.4929,0.4934,0.4964,0.4965,0.4965,0.4966,0,0.4365,0.4378,0.4422,0.4471,0.4507,0.4548,0.4588,0.461,0.4644,0.4679,0.4731,0.4765,0.483,0.4882,0.4935,0.4962,0.497,0.4973,0.4983,0.4977,0.4965,0.4972,0.4887,0.497,0.497,0.497,0.4969,0.4969,0.4405,0.4438,0.4483,0.4531,0.4564,0.4601,0.4637,0.4666,0.471,0.4766,0.4779,0.4835,0.4879,0.495,0.4978,0.5022,0.5017,0.5031,0.5035,0.5038,0.5039,0.4958,0.5032,0.5032,0.5032,0.5032,0.5032,0,0.4467,0.4496,0.4541,0.4596,0.4635,0.4639,0.4684,0.4716,0.4764,0.4804,0.4846,0.4907,0.4957,0.4996,0.5047,0.5075,0.508,0.5088,0.5086,0.5093,0.5041,0.5027,0.5083,0.5083,0.5083,0.5083,0.5083,0.5083,0.4504,0.4561,0.458,0.4654,0.4683,0.4737,0.4762,0.4797,0.4829,0.4896,0.4938,0.4963,0.5003,0.5058,0.5104,0.5114,0.5133,0.514,0.5151,0.5102,0.5096,0.5091,0.5078,0.5144,0.5144,0.5199,0.5199,0.52]},{"header":{"parameterUnit":"m.s-1","parameterCategory":1,"la1":30.2991,"la2":30.254,"lo1":-89.0895,"lo2":-89.0444,"dy":0.0017,"dx":0.0017,"nx":28,"ny":28,"refTime":"2025-11-17T03:00:00:Z","depth":0,"parameterNumber":3,"parameterNumberName":"V-component_of_WINDS"},"data":[0,0,0,0,0,0,0,0,0,0,0,0,0,0,0,0,0,0,0,0,0,0,0,0,0,0,0,0,0,0,0,0,0,0,0,0,0,0,0,0,0,0,0,0,0,0,0,0,0,0,0,0,0,0,0,0,0,0,-0.5313,-0.5313,0,-0.5309,-0.5309,-0.5309,-0.5325,-0.5326,-0.5326,-0.5327,-0.5321,-0.5321,-0.532,0,0,0,0,0,0,0,0,0,0,0,0,0,-0.5335,-0.5335,-0.5313,-0.5313,-0.5313,-0.5309,-0.5309,-0.5309,-0.5325,-0.5326,-0.5327,-0.5327,-0.5321,-0.5321,-0.532,0,0,0,0,0,0,0,0,0,0,0,0,0,-0.5328,-0.5335,-0.5313,-0.5321,-0.5322,-0.5309,-0.5309,-0.5309,-0.5325,-0.5326,-0.5327,-0.5327,-0.5322,-0.5321,-0.532,-0.5299,0,0,-0.5317,-0.5317,0,0,0,0,0,0,0,0,-0.5328,-0.5327,-0.532,-0.532,-0.5321,-0.5318,-0.5314,-0.5305,-0.5325,-0.5324,-0.5327,-0.5328,-0.532,-0.5319,-0.5316,-0.5299,-0.5298,-0.5317,-0.5316,-0.5316,-0.5316,0,0,0,0,0,0,0,-0.5329,-0.5327,-0.5311,-0.532,-0.532,-0.5324,-0.5324,-0.5313,-0.5317,-0.5324,-0.5325,-0.5324,-0.532,-0.5317,-0.5316,-0.5298,-0.5317,-0.5316,-0.5316,-0.5315,-0.5263,-0.5263,0,0,0,0,0,0,-0.5328,-0.5328,-0.5311,-0.5311,-0.5327,-0.5323,-0.5323,-0.5318,-0.5318,-0.5318,-0.5324,-0.5325,-0.5318,-0.5317,-0.5316,-0.5291,-0.5316,-0.5315,-0.5315,-0.5264,-0.5263,-0.5262,0,0,0,0,0,0,-0.5329,-0.5327,-0.5312,-0.532,-0.5318,-0.5322,-0.5317,-0.5318,-0.5315,-0.5318,-0.5318,-0.532,-0.5319,-0.5317,-0.5303,-0.5291,-0.5315,-0.5314,-0.5265,-0.5264,-0.5263,-0.5242,0,0,0,0,0,0,-0.5329,-0.5327,-0.5319,-0.5319,-0.5318,-0.5299,-0.5316,-0.5317,-0.5314,-0.5315,-0.5314,-0.5315,-0.5319,-0.5305,-0.5302,-0.5291,-0.5313,-0.5266,-0.5265,-0.5263,-0.5244,-0.524,-0.5237,0,0,0,0,0,-0.533,-0.5313,-0.5318,-0.5316,-0.5308,-0.5298,-0.5297,-0.5303,-0.5313,-0.5305,-0.5306,-0.5315,-0.5293,-0.5303,-0.5301,-0.5288,-0.5267,-0.5265,-0.5263,-0.5245,-0.5241,-0.5237,0,0,0,0,0,0,-0.531,-0.5313,-0.5319,-0.5302,-0.53,-0.5301,-0.5291,-0.5298,-0.5293,-0.5295,-0.5302,-0.5302,-0.5286,-0.5286,-0.5297,-0.5268,-0.5282,-0.5279,-0.5269,-0.5265,-0.5261,-0.5261,-0.5312,0,0,0,0,0,-0.5304,-0.5296,-0.5299,-0.5283,-0.5282,-0.5286,-0.5282,-0.5287,-0.5285,-0.5284,-0.5285,-0.5282,-0.5275,-0.527,-0.5264,-0.5244,-0.5244,-0.5235,-0.5231,-0.5229,-0.5226,-0.5216,-0.5212,-0.5256,-0.5256,-0.5256,0,0,-0.529,-0.5291,-0.5285,-0.5279,-0.5278,-0.5269,-0.5285,-0.5276,-0.5269,-0.5283,-0.5269,-0.527,-0.5267,-0.525,-0.5243,-0.525,-0.5214,-0.5226,-0.5224,-0.5223,-0.5214,-0.5209,-0.5206,-0.5255,-0.5255,-0.5256,0,0,-0.5261,-0.5261,-0.5248,-0.5247,-0.5245,-0.5249,-0.5246,-0.5246,-0.5247,-0.5234,-0.5244,-0.5237,-0.5224,-0.5222,-0.5219,-0.5191,-0.5198,-0.5188,-0.5171,-0.5161,-0.5157,-0.5154,-0.5143,-0.5139,-0.5186,-0.5186,-0.5186,0,-0.5244,-0.5232,-0.524,-0.5229,-0.5226,-0.5239,-0.5226,-0.5224,-0.5221,-0.5218,-0.5226,-0.5211,-0.521,-0.5193,-0.5186,-0.5184,-0.518,-0.5188,-0.5157,-0.5154,-0.5151,-0.5141,-0.5137,-0.5185,-0.5185,-0.5185,-0.5185,0,-0.5211,-0.5202,-0.5192,-0.5189,-0.5184,-0.5172,-0.5179,-0.5174,-0.518,-0.5182,-0.5169,-0.5169,-0.5162,-0.5159,-0.5164,-0.5143,-0.5147,-0.5156,-0.5169,-0.5146,-0.5136,-0.5132,-0.5183,-0.5184,-0.5184,-0.5184,0,0,-0.5167,-0.517,-0.5166,-0.5164,-0.5164,-0.5158,-0.5147,-0.5141,-0.5136,-0.5134,-0.5124,-0.5114,-0.5123,-0.512,-0.5125,-0.5116,-0.5093,-0.5127,-0.5127,-0.512,-0.5069,-0.5061,-0.5056,-0.5099,-0.5098,-0.5098,-0.5069,0,-0.5138,-0.5119,-0.5127,-0.5107,-0.5099,-0.5112,-0.5103,-0.5102,-0.5104,-0.5098,-0.5101,-0.5093,-0.5105,-0.5103,-0.5096,-0.5098,-0.5083,-0.51,-0.5089,-0.5089,-0.5088,-0.5052,-0.5043,-0.5016,-0.5065,-0.5065,-0.5064,0,-0.5101,-0.5098,-0.5077,-0.5079,-0.5076,-0.5067,-0.5063,-0.5057,-0.5056,-0.5059,-0.5056,-0.5064,-0.5053,-0.5068,-0.5053,-0.5064,-0.506,-0.5061,-0.506,-0.5058,-0.5074,-0.5048,-0.5007,-0.5003,-0.5058,-0.5059,-0.5059,0,-0.507,-0.5061,-0.5047,-0.5046,-0.5048,-0.5042,-0.5042,-0.5042,-0.5039,-0.5035,-0.5033,-0.5028,-0.5025,-0.5021,-0.5027,-0.5037,-0.5011,-0.5026,-0.5012,-0.5012,-0.5005,-0.5005,-0.4962,-0.5005,-0.5005,-0.5005,-0.5005,0,-0.5036,-0.5023,-0.5034,-0.5025,-0.5011,-0.5021,-0.5006,-0.5008,-0.5008,-0.5,-0.5012,-0.5004,-0.5013,-0.5006,-0.5011,-0.4998,-0.4997,-0.4998,-0.4999,-0.4996,-0.4996,-0.4993,-0.4995,-0.5004,-0.5004,-0.5004,-0.5004,0,-0.4998,-0.5005,-0.4992,-0.4995,-0.4996,-0.4985,-0.4988,-0.4981,-0.4985,-0.4975,-0.4973,-0.4979,-0.4972,-0.4978,-0.4971,-0.4974,-0.4956,-0.496,-0.4956,-0.4957,-0.4942,-0.4943,-0.4895,-0.4889,-0.4936,-0.4936,-0.4935,0,-0.4976,-0.4966,-0.4969,-0.4965,-0.4965,-0.4958,-0.4955,-0.4964,-0.496,-0.4959,-0.4951,-0.4945,-0.494,-0.4928,-0.4932,-0.4926,-0.493,-0.4914,-0.4929,-0.4927,-0.4929,-0.4929,-0.4928,-0.491,-0.491,-0.4909,-0.4909,0,-0.4934,-0.4938,-0.4933,-0.4929,-0.4925,-0.4923,-0.4921,-0.4917,-0.4926,-0.4921,-0.4914,-0.4911,-0.4904,-0.4898,-0.4894,-0.4894,-0.4903,-0.4904,-0.4901,-0.4897,-0.4894,-0.4895,-0.4946,-0.4905,-0.4905,-0.4906,-0.4906,-0.4906,-0.4902,-0.4894,-0.4895,-0.489,-0.489,-0.4888,-0.4881,-0.4885,-0.4879,-0.4875,-0.4881,-0.4872,-0.4872,-0.4868,-0.4867,-0.4861,-0.4867,-0.4862,-0.4861,-0.4859,-0.4856,-0.4897,-0.486,-0.486,-0.486,-0.486,-0.486,0,-0.486,-0.4862,-0.4857,-0.4854,-0.485,-0.486,-0.4859,-0.4854,-0.4846,-0.4846,-0.4842,-0.4834,-0.4828,-0.4832,-0.4827,-0.4821,-0.4824,-0.4819,-0.4819,-0.4819,-0.4851,-0.4854,-0.4816,-0.4816,-0.4816,-0.4816,-0.4816,-0.4816,-0.4838,-0.4825,-0.483,-0.4817,-0.4819,-0.4811,-0.4809,-0.4808,-0.4808,-0.4798,-0.4794,-0.4797,-0.4798,-0.4793,-0.4789,-0.479,-0.4787,-0.478,-0.4782,-0.4812,-0.4816,-0.482,-0.4824,-0.4779,-0.4779,-0.475,-0.475,-0.475]}]]